Вернуться в каталог

SL-14 DEB

АктивенPO
NORAD 47084·DEBRIS·🇷🇺 Russia

Запущен Aug 15, 1991 с Plesetsk Cosmodrome

Loading…

Ближайшие Пролёты (ближайшие 24 часа)

TLE

УстаревающийSource: Space-Track

Эпоха: Sep 10, 2026, 23:54 UTC

1 47084U 91056DJ  26253.99627467  .00010743  00000-0  16328-1 0  9998
2 47084  82.6272 102.8586 0151039  92.0321 269.8123 13.47615109119209

Отслеживайте SL-14 DEB в реальном времени с AllMySat

Download on the App Store